This demonstration page uses our WeatherBlox Daily Observations layout. Learn more.

Left ArrowRight Arrow

Hourly Observations for December 17, 2016

Temp ( °F °C ) Dew Point ( °F °C ) Humidity (%) Winds ( mph kmh ) Pressure ( in mb ) Visibility ( mi km ) Precip ( " mm )
12:53 am 00:53 Clear 70 21.1 62 16.7 76 76 SSE 13 20 29.84 1011 10 16 0.00 0.00
1:53 am 01:53 Clear 69 20.6 59 15 70 70 S 10 17 29.83 1010 10 16 0.00 0.00
2:53 am 02:53 Clear 71 21.7 63 17.2 76 76 S 10 17 29.82 1010 10 16 0.00 0.00
3:53 am 03:53 Clear 73 22.8 63 17.2 71 71 SSW 10 17 29.83 1010 10 16 0.00 0.00
4:53 am 04:53 Clear 68 20 60 15.6 76 76 SE 12 19 29.83 1010 10 16 0.00 0.00
5:53 am 05:53 Clear 67 19.4 61 16.1 81 81 SE 10 17 29.85 1011 10 16 0.00 0.00
6:53 am 06:53 Mostly Sunny 67 19.4 61 16.1 81 81 SSE 8 13 29.86 1011 10 16 0.00 0.00
7:53 am 07:53 Partly Cloudy 71 21.7 62 16.7 73 73 SSE 12 19 29.87 1012 10 16 0.00 0.00
8:53 am 08:53 Sunny 77 25 64 17.8 64 64 SSW 15 24 29.89 1012 10 16 0.00 0.00
9:53 am 09:53 Mostly Sunny 79 26.1 63 17.2 58 58 SSW 12 19 29.88 1012 10 16 0.00 0.00
10:53 am 10:53 Sunny 80 26.7 63 17.2 56 56 S 14 22 29.87 1012 10 16 0.00 0.00
11:53 am 11:53 Partly Cloudy 80 26.7 64 17.8 58 58 SSW 14 22 29.83 1010 10 16 0.00 0.00
12:53 pm 12:53 Sunny 81 27.2 63 17.2 54 54 S 13 20 29.79 1009 10 16 0.00 0.00
1:53 pm 13:53 Partly Cloudy 81 27.2 62 16.7 53 53 SSW 14 22 29.77 1008 10 16 0.00 0.00
2:53 pm 14:53 Partly Cloudy 81 27.2 64 17.8 57 57 S 15 24 29.76 1008 10 16 0.00 0.00
3:53 pm 15:53 Mostly Cloudy 79 26.1 65 18.3 62 62 S 12 19 29.78 1008 10 16 0.00 0.00
4:53 pm 16:53 Mostly Cloudy 78 25.6 64 17.8 62 62 S 7 11 29.81 1010 10 16 0.00 0.00
5:53 pm 17:53 Mostly Cloudy 77 25 65 18.3 66 66 S 6 9 29.83 1010 10 16 0.00 0.00
6:53 pm 18:53 Cloudy with Light Rain 76 24.4 66 18.9 72 72 SSE 7 11 29.87 1011 10 16 0.00 0.03
7:53 pm 19:53 Cloudy 71 21.7 69 20.6 94 94 ESE 10 17 29.87 1012 10 16 0.01 0.25
8:53 pm 20:53 Cloudy with Light Rain 70 21.1 70 21.1 100 100 Calm 29.89 1012 10 16 0.18 4.57
9:53 pm 21:53 Mostly Cloudy with Heavy Rain 68 20 66 18.9 93 93 WSW 3 6 29.91 1013 3 4 0.22 5.59
10:01 pm 22:01 Cloudy with Rain 68 20 67 19.4 96 96 Calm 29.91 1013 5 8 0.02 0.51
10:53 pm 22:53 Cloudy with Light Rain 67 19.4 67 19.4 100 100 Calm 29.91 1013 10 16 0.19 4.83
11:53 pm 23:53 Cloudy 70 21.1 68 20 93 93 NE 10 17 29.87 1012 10 16 0.02 0.51

Powered by Vaisala Xweather